Flag for United Kingdom Weather past 2 weeks in Aylesbury, England, United Kingdom

Now
63 °F

Mild.


Feels Like: 63 °F
Forecast: 43 / 63 °F
Wind: 2 mph from North

Location: High Wicombe Hqstc

Current Time: Sep 22, 2014 at 7:35:15 PM

Latest Report: Sep 22, 2014 at 6:00 PM


Visibility: 13 mi

Pressure: 30.24 "Hg

Humidity: 52%

Dew point: 45 °F

Location of AylesburyLocation

Historic Weather in Aylesbury — Graph

°F

Aylesbury temperature yesterday

Maximum temperature yesterday: 60 °F (at 3:00 PM)
Minimum temperature yesterday: 50 °F (at 7:00 AM)
Average temperature yesterday: 55 °F

Past Weeks' High & Low Weather Summary

 TemperatureHumidityPressure
High75 °F (Sep 18, 3:00 PM)100% (Sep 17, 1:00 AM)30.36 "Hg (Sep 17, 1:00 AM)
Low44 °F (Sep 22, 7:00 AM)41% (Sep 8, 4:00 PM)29.78 "Hg (Sep 18, 3:00 PM)
Average59 °F81%30.10 "Hg
* Reported Sep 7 6:00 PM — Sep 22 6:00 PM, Aylesbury, Weather by CustomWeather, © 2014

Note: Actual official high and low records may vary slightly from our data, if they occured in-between our weather recording intervals... More about our weather records

Advertising

Aylesbury weather history for previous 24 hours

 ConditionsComfort  
Time TempWeatherWind HumidityBarometerVisibility
6:00 PM
Sep 22
63 °FMild.2 mph52%30.24 "Hg12 mi
5:00 PM63 °FMild.6 mph50%30.24 "Hg11 mi
4:00 PM65 °FMild.3 mph52%30.25 "Hg10 mi
3:00 PM64 °FMild.5 mph53%30.27 "Hg13 mi
2:00 PM63 °FMild.5 mph56%30.28 "Hg7 mi
1:00 PM61 °FCool.3 mph63%30.31 "Hg7 mi
12:00 PM58 °FCool.6 mph67%30.32 "Hg6 mi
11:00 AM56 °FCool.5 mph68%30.31 "Hg6 mi
10:00 AM52 °FSmoke.3 mph80%30.33 "Hg5 mi
9:00 AM48 °FFog.2 mph96%30.33 "Hg5 mi
8:00 AM45 °FFog.2 mph99%30.34 "Hg3 mi
7:00 AM44 °FFog.2 mph99%30.34 "Hg3 mi
6:00 AM44 °FFog.2 mph98%30.33 "Hg1 mi
5:00 AM45 °FFog.3 mph97%30.34 "Hg2 mi
4:00 AM45 °FFog.3 mph96%30.33 "Hg3 mi
3:00 AM46 °FFog.5 mph95%30.34 "Hg5 mi
2:00 AM46 °FSmoke.5 mph93%30.36 "Hg4 mi
1:00 AM49 °FCool.5 mph89%30.34 "Hg7 mi
12:00 AM50 °FCool.7 mph87%30.34 "Hg6 mi
11:00 PM
Sep 21
50 °FSmoke.5 mph87%30.34 "Hg6 mi
10:00 PM51 °FCool.6 mph82%30.33 "Hg6 mi
9:00 PM52 °FCool.7 mph80%30.33 "Hg7 mi
8:00 PM52 °FCool.6 mph79%30.32 "Hg8 mi
7:00 PM56 °FCool.7 mph71%30.29 "Hg9 mi
Weather by CustomWeather, © 2014

See weather overviewHow to use our weather pages